Location: Kellogg
(38.0159°N, 90.0546°W)
Time: 21:39:56
(UTC+00:00)

Transit 4A - Pass Details

Date: 12 September 2024
Orbit: 864 x 978 km, 66.8° (Epoch: 12 October)

Event Time Altitude Azimuth Distance (km) Brightness Sun altitude
Rises 11:15:01 0° 264° (W) 3,460 - -5.7°
Exits shadow 11:16:57 - 275° (W) 2,942 9.9 -5.3°
Reaches altitude 10° 11:18:53 10° 289° (WNW) 2,543 9.7 -4.9°
Maximum altitude 11:21:47 14° 319° (NW) 2,296 9.7 -4.4°
Drops below altitude 10° 11:24:44 10° 349° (N) 2,581 10.2 -3.8°
Sets 11:28:45 0° 15° (NNE) 3,553 11.3 -3.0°
